NOAA 16 DEB, 41076

Orbit data source: Space-Track

NOAA 16 DEB, 41076 is space debris in SSO originally from a launch on Thu, 21 Sep 2000 UTC launched from the Air Force Western Test Range (AFWTR). Debris objects in space refer to the collection of defunct objects orbiting the Earth. Examples of debris include non-operational satellites, rocket bodies, and fragments generated from explosions, collisions, or faulty payload assembly.

Loading next visibility...
Identifier
41076, 2000-055AK
Orbit
SSO
Last TLE update
19 hours ago
Origin
Manufacturer
Unknown
Mission
Spacecraft
Bus & Motor
Unknown
Mass
Unknown
Launch date (UTC)
2000-09-21 (25 years ago)
Launch vehicle
Unknown
Launch site
Air Force Western Test Range (AFWTR)
Object type
Payload
Rocket body
Debris
Shape & HBR
Unknown
Radar Cross Section
Small (<0.1 m²)

Expand to show TLE details & history

TLE from 19 hours ago
0 NOAA 16 DEB
1 41076U 00055AK  25109.22508139  .00054970  00000-0  33970-2 0  9994
2 41076  99.1848 255.6662 0094319  93.3725 267.8292 15.05956439501386
Epoch: 2025-04-19T05:24Z
Definitive object data (Epoch: 2025-04-19T05:24:07.032Z)
Latitude
0.00003°
Longitude
-32.93444°
Altitude
554.677 km
Speed
7.583 km/s
True Right ascension
17h 02m 39s
True Declination
0° 00' 00"
Sunlit
Object was in full shadow at TLE epoch
Visualization TLE readout
Latitude
-19.99627°
Longitude
-28.63542°
Altitude
578.648 km
Speed
7.558 km/s
Apparent Right ascension
18h 11m 01s
Apparent Declination
-30° 12' 07"
Sunlit
Object is in full shadow
Visualization observer readout
Local Sidereal Time
07:19:47
Azimuth
60.595° ENE
Elevation
-72.95°
Doppler factor
1
Orbital elements
Apogee altitude
610.944 km
Perigee altitude
480.336 km
Semi-major axis
6,923.777 km
Eccentricity
0.0094319
Inclination
99.1848°
RAAN
255.6662°
Arg. of periapsis
93.3725°
True anomaly
266.74971°
Mean anomaly
267.8292°
Eccentric anomaly
267.2894°
Mean motion
3.76729 °/min
BSTAR
0.003397
Orbital period
95.56 mins
Loading maneuver chart data...
Loading SW <> Apogee altitude chart data...
Loading historical data...
Loading historical data...
Loading historical data...
Loading historical data...
Loading historical data...
Loading historical data...
Loading historical data...

NOAA 16 DEB Visibility forecast

Observer location: undefined°, undefined°

Span
Click to sort rows by Start time (UTC) header in descending order
Start Az.
Max El. time (UTC)
Max El. Az.
Max El.
End time (UTC)
End Az.
4 mins2025-04-20 10:14:50.551Z214.309° SW2025-04-20 10:16:50.551Z270.438° WNW27.061°2025-04-20 10:18:50.551Z315.136° NNW
4 mins2025-04-20 23:25:50.551Z330° NNW2025-04-20 23:27:50.551Z280.254° WNW22.81°2025-04-20 23:29:50.551Z241.585° WSW
|